Total_Precipitation_Accumulation
0.00 0.00 0.00 0.00 0.00 0.00 0.00 0.00 0.00 0.01 0.01 0.03 0.08 0.13 0.23 0.28 0.35 0.44 0.53 0.52 0.68 0.77 0.99 1.38 1.74 1.99 2.24 2.16 2.19 2.10 2.13 2.31 2.40 2.55 2.67 2.89 2.91 2.89 3.12 3.40 3.55 3.74 3.81 3.63
0.00 0.00 0.00 0.00 0.00 0.00 0.00 0.00 0.01 0.03 0.05 0.06 0.10 0.21 0.33 0.40 0.39 0.50 0.64 0.70 0.97 1.13 1.19 1.36 1.68 2.00 2.20 2.22 2.19 2.22 2.41 2.48 2.60 2.93 3.36 3.77 4.09 4.25 4.32 4.48 4.50 4.41 4.26 4.12
0.00 0.00 0.00 0.00 0.00 0.00 0.00 0.01 0.02 0.05 0.10 0.13 0.19 0.40 0.47 0.44 0.43 0.54 0.72 0.83 1.04 1.22 1.37 1.30 1.35 1.53 1.81 2.05 2.22 2.30 2.60 2.94 3.28 3.75 4.30 4.71 5.05 5.27 5.19 5.00 4.85 4.62 4.40 4.19
0.00 0.00 0.00 0.00 0.00 0.01 0.01 0.01 0.02 0.04 0.09 0.20 0.23 0.46 0.57 0.53 0.59 0.64 0.70 0.75 0.88 0.91 1.01 1.15 1.19 1.29 1.54 1.78 2.07 2.37 2.66 3.18 3.92 4.60 5.15 5.61 5.80 5.77 5.63 5.37 4.99 4.58 4.25 3.93
0.00 0.01 0.01 0.00 0.00 0.00 0.01 0.00 0.01 0.04 0.07 0.16 0.20 0.43 0.67 0.68 0.70 0.77 0.88 0.83 0.80 0.79 0.80 0.91 1.01 1.13 1.33 1.54 1.86 2.25 2.70 3.31 3.94 4.60 5.17 5.62 5.81 5.71 5.44 5.00 4.49 3.98 3.51 3.15
0.01 0.01 0.00 0.00 0.00 0.00 0.00 0.01 0.03 0.06 0.10 0.22 0.19 0.35 0.73 0.92 0.94 1.03 1.03 1.06 1.02 0.91 0.88 0.87 0.88 0.94 1.08 1.34 1.66 2.05 2.47 2.99 3.50 3.92 4.44 4.75 4.92 4.86 4.52 4.04 3.46 3.02 2.69 2.40
0.02 0.01 0.01 0.00 0.00 0.00 0.00 0.02 0.09 0.14 0.18 0.23 0.20 0.39 0.86 1.13 1.11 1.17 1.12 1.15 1.16 1.04 0.94 0.87 0.85 0.83 0.93 1.16 1.49 1.73 1.99 2.37 2.69 3.05 3.44 3.64 3.65 3.49 3.26 2.99 2.66 2.31 1.99 1.71
0.07 0.04 0.01 0.00 0.01 0.01 0.01 0.02 0.11 0.23 0.26 0.30 0.39 0.71 1.11 1.16 1.05 1.05 1.06 1.01 0.97 0.90 0.87 0.90 0.93 0.93 1.01 1.07 1.24 1.43 1.57 1.75 1.89 2.02 2.21 2.25 2.22 2.13 2.09 1.96 1.75 1.52 1.28 1.03
0.12 0.07 0.02 0.01 0.01 0.01 0.01 0.03 0.06 0.10 0.16 0.31 0.63 1.05 1.34 1.25 1.17 1.07 0.96 0.80 0.84 0.80 0.73 0.80 0.85 0.94 1.00 1.01 1.01 1.03 1.03 1.06 1.08 1.10 1.20 1.25 1.25 1.22 1.19 1.10 0.99 0.89 0.80 0.70
0.10 0.08 0.04 0.03 0.01 0.02 0.02 0.04 0.05 0.10 0.27 0.42 0.67 1.06 1.45 1.59 1.53 1.45 1.18 0.88 0.86 0.80 0.72 0.69 0.68 0.72 0.77 0.78 0.76 0.70 0.71 0.71 0.65 0.62 0.63 0.67 0.71 0.69 0.66 0.64 0.61 0.57 0.53 0.48
0.08 0.09 0.07 0.05 0.05 0.06 0.04 0.05 0.06 0.11 0.19 0.38 0.76 1.23 1.38 1.62 1.63 1.50 1.24 1.01 0.99 0.90 0.81 0.76 0.74 0.66 0.63 0.64 0.65 0.60 0.58 0.55 0.52 0.50 0.50 0.46 0.44 0.42 0.38 0.37 0.36 0.33 0.31 0.28
0.08 0.13 0.12 0.09 0.08 0.06 0.07 0.07 0.07 0.17 0.19 0.25 0.65 1.38 1.57 1.72 1.72 1.62 1.57 1.38 1.19 1.07 0.97 0.89 0.84 0.71 0.63 0.58 0.58 0.56 0.51 0.46 0.44 0.41 0.38 0.34 0.30 0.29 0.27 0.26 0.24 0.21 0.20 0.19
0.10 0.21 0.27 0.36 0.30 0.14 0.09 0.08 0.10 0.12 0.18 0.34 0.69 1.37 1.68 1.74 1.67 1.62 1.49 1.39 1.39 1.36 1.23 1.02 0.86 0.71 0.58 0.50 0.50 0.49 0.45 0.42 0.40 0.37 0.35 0.34 0.28 0.25 0.24 0.22 0.20 0.19 0.18 0.17
0.10 0.22 0.38 0.66 0.57 0.25 0.14 0.11 0.12 0.15 0.29 0.46 0.68 1.11 1.40 1.57 1.68 1.75 1.66 1.61 1.56 1.34 1.03 0.80 0.70 0.63 0.57 0.53 0.50 0.45 0.41 0.37 0.35 0.35 0.35 0.37 0.35 0.29 0.26 0.23 0.21 0.18 0.15 0.14
0.12 0.25 0.26 0.29 0.27 0.20 0.18 0.15 0.15 0.19 0.24 0.43 0.69 1.06 1.39 1.53 1.64 1.68 1.73 1.67 1.43 1.19 1.00 0.84 0.73 0.69 0.65 0.57 0.48 0.40 0.36 0.33 0.31 0.32 0.33 0.34 0.34 0.30 0.26 0.22 0.20 0.17 0.14 0.12
0.15 0.28 0.24 0.27 0.25 0.27 0.32 0.27 0.29 0.29 0.37 0.52 0.81 1.16 1.36 1.55 1.64 1.58 1.59 1.53 1.47 1.37 1.22 1.07 0.94 0.85 0.75 0.62 0.50 0.45 0.43 0.39 0.35 0.36 0.36 0.32 0.29 0.26 0.23 0.21 0.18 0.17 0.16 0.15
0.19 0.25 0.32 0.35 0.25 0.37 0.59 0.44 0.38 0.42 0.51 0.68 0.94 1.15 1.13 1.17 1.32 1.43 1.50 1.47 1.47 1.45 1.38 1.26 1.15 1.05 0.92 0.76 0.64 0.58 0.54 0.47 0.41 0.41 0.38 0.35 0.31 0.26 0.21 0.17 0.18 0.16 0.17 0.18
0.18 0.27 0.32 0.36 0.44 0.77 0.76 0.50 0.47 0.52 0.60 0.60 0.72 0.81 0.88 0.92 1.02 1.12 1.20 1.36 1.48 1.48 1.40 1.31 1.18 1.07 0.98 0.83 0.70 0.60 0.51 0.43 0.42 0.44 0.38 0.32 0.30 0.26 0.21 0.17 0.18 0.15 0.17 0.19
0.11 0.24 0.39 0.47 0.66 0.85 0.81 0.53 0.54 0.76 0.86 0.61 0.54 0.56 0.59 0.64 0.76 1.03 1.12 1.27 1.44 1.44 1.38 1.30 1.17 1.05 0.95 0.81 0.68 0.57 0.52 0.46 0.43 0.39 0.32 0.26 0.24 0.22 0.19 0.17 0.16 0.15 0.16 0.18
0.10 0.18 0.40 0.56 0.82 1.08 1.06 0.53 0.37 0.66 1.14 0.76 0.58 0.57 0.64 0.75 0.90 0.94 0.87 0.91 1.11 1.28 1.34 1.31 1.15 0.96 0.82 0.67 0.53 0.47 0.45 0.39 0.34 0.26 0.20 0.19 0.19 0.17 0.15 0.14 0.14 0.14 0.15 0.17
0.30 0.34 0.49 0.64 0.93 1.08 0.63 0.36 0.44 0.92 1.13 0.91 0.77 0.72 0.81 0.98 1.02 0.82 0.74 0.82 0.93 1.06 1.14 1.08 0.96 0.82 0.66 0.50 0.44 0.42 0.35 0.29 0.22 0.17 0.16 0.17 0.18 0.17 0.15 0.16 0.17 0.16 0.16 0.19
0.41 0.56 0.64 0.77 1.04 1.08 0.45 0.32 0.57 0.71 0.64 0.64 0.59 0.55 0.59 0.60 0.58 0.59 0.66 0.78 0.89 0.94 0.92 0.86 0.77 0.65 0.52 0.44 0.42 0.41 0.35 0.26 0.19 0.19 0.18 0.18 0.17 0.10 0.09 0.17 0.20 0.18 0.22 0.24
0.33 0.46 0.61 0.78 0.95 0.76 0.40 0.32 0.33 0.39 0.45 0.44 0.42 0.38 0.43 0.46 0.50 0.50 0.54 0.65 0.74 0.76 0.72 0.64 0.53 0.48 0.43 0.38 0.38 0.37 0.32 0.24 0.23 0.26 0.26 0.21 0.16 0.13 0.12 0.16 0.19 0.21 0.22 0.21
0.37 0.27 0.38 0.60 0.63 0.52 0.38 0.32 0.26 0.25 0.29 0.28 0.29 0.32 0.39 0.45 0.45 0.42 0.43 0.47 0.52 0.54 0.51 0.50 0.46 0.44 0.38 0.32 0.29 0.30 0.25 0.21 0.30 0.34 0.29 0.24 0.22 0.18 0.15 0.15 0.12 0.15 0.17 0.16
0.41 0.47 0.62 0.73 0.62 0.54 0.48 0.37 0.28 0.24 0.20 0.19 0.23 0.28 0.32 0.33 0.33 0.31 0.32 0.33 0.34 0.34 0.37 0.39 0.37 0.33 0.27 0.21 0.18 0.17 0.16 0.18 0.28 0.30 0.24 0.21 0.17 0.15 0.17 0.14 0.07 0.06 0.06 0.04
0.34 0.60 0.99 0.82 0.66 0.68 0.58 0.42 0.33 0.31 0.27 0.27 0.23 0.23 0.25 0.25 0.23 0.22 0.26 0.28 0.27 0.25 0.25 0.28 0.27 0.22 0.18 0.15 0.15 0.12 0.10 0.11 0.20 0.24 0.20 0.16 0.12 0.10 0.12 0.14 0.12 0.04 0.01 0.01